Overview Statistics Trail Chart Weather Telemetry Raw packets
 

This is the latest recevied weather packets stored in our database for station/object N7WSS. If no packets are shown the sender has not sent any weather packets the latest 10 day(s).

<< 108 109 110 111 112 113 114 >>
Time Temp. Humidity Pressure Rain* Wind** Luminosity Snow
1787812822 30° C 40% 1013.7 hPa 0 mm - - -
1787812519 30° C 40% 1014 hPa 0 mm - - -
1787812218 30° C 41% 1013.7 hPa 0 mm - - -
1787811914 29.44° C 42% 1013.7 hPa 0 mm - - -
1787811614 29.44° C 43% 1013.7 hPa 0 mm - - -
1787811308 30° C 43% 1013.7 hPa 0 mm - - -
1787811002 30° C 44% 1013.6 hPa 0 mm - - -
1787810699 30° C 43% 1013.5 hPa 0 mm - - -
1787810398 30.56° C 42% 1013.5 hPa 0 mm - - -
1787810093 30.56° C 42% 1013.6 hPa 0 mm - - -
1787809788 30.56° C 42% 1013.5 hPa 0 mm - - -
1787809483 30.56° C 42% 1013.5 hPa 0 mm - - -
1787809179 30° C 42% 1013.7 hPa 0 mm - - -
1787808876 30.56° C 42% 1013.6 hPa 0 mm - - -
1787808575 30.56° C 42% 1013.6 hPa 0 mm - - -
1787808274 30.56° C 41% 1013.6 hPa 0 mm - - -
1787807973 30.56° C 41% 1013.6 hPa 0 mm - - -
1787807668 30.56° C 41% 1013.5 hPa 0 mm - - -
1787807363 30.56° C 42% 1013.6 hPa 0 mm - - -
1787807060 30.56° C 42% 1013.7 hPa 0 mm - - -
1787806758 31.11° C 41% 1013.5 hPa 0 mm - - -
1787806452 31.11° C 41% 1013.3 hPa 0 mm - - -
1787806152 31.67° C 40% 1013.5 hPa 0 mm - - -
1787805847 31.67° C 40% 1013.5 hPa 0 mm - - -
1787805542 32.22° C 39% 1013.7 hPa 0 mm - - -

* Rain latest hour (hover to see other rain measurements)
** Current wind speed in m/s (hover to see current wind gust speed)